Hourly Weather Rudnopole

Today, 20 April, Tuesday

Time Temperature Precipitation Wind Pressure Humidity
00:00 +9°C° 0 mm 1 mps 757 mmHg 77%
01:00 +10°C° 0 mm 1 mps 757 mmHg 78%
02:00 +9°C° 0 mm 1 mps 757 mmHg 79%
03:00 +9°C° 0 mm 1 mps 757 mmHg 79%
04:00 +9°C° 0 mm 1 mps 757 mmHg 80%
05:00 +10°C° 0 mm 1 mps 757 mmHg 78%
06:00 +11°C° 0 mm 1 mps 757 mmHg 76%
07:00 +11°C° 0 mm 1 mps 757 mmHg 75%
08:00 +12°C° 0.4 mm 1 mps 757 mmHg 70%
09:00 +13°C° 0.4 mm 2 mps 757 mmHg 65%
10:00 +14°C° 0.4 mm 2 mps 756 mmHg 60%
11:00 +15°C° 0.1 mm 2 mps 756 mmHg 56%
12:00 +15°C° 0.1 mm 2 mps 756 mmHg 53%
13:00 +16°C° 0.1 mm 1 mps 756 mmHg 49%
14:00 +15°C° 0 mm 2 mps 755 mmHg 51%
15:00 +15°C° 0 mm 2 mps 755 mmHg 53%
16:00 +14°C° 0 mm 3 mps 755 mmHg 55%
17:00 +13°C° 0 mm 2 mps 755 mmHg 63%
18:00 +10°C° 0 mm 2 mps 755 mmHg 71%
19:00 +9°C° 0 mm 2 mps 755 mmHg 79%
20:00 +8°C° 0 mm 2 mps 754 mmHg 80%
21:00 +7°C° 0 mm 2 mps 754 mmHg 80%
22:00 +8°C° 0 mm 1 mps 754 mmHg 81%
23:00 +8°C° 0 mm 1 mps 754 mmHg 81%

Tomorrow, 21 April, Wednesday

Time Temperature Precipitation Wind Pressure Humidity
00:00 +7°C° 0 mm 1 mps 754 mmHg 80%
01:00 +6°C° 0 mm 0 mps 754 mmHg 80%
02:00 +6°C° 0 mm 0 mps 753 mmHg 80%
03:00 +6°C° 0 mm 0 mps 753 mmHg 80%
04:00 +7°C° 0 mm 1 mps 753 mmHg 80%
05:00 +8°C° 0 mm 1 mps 753 mmHg 76%
06:00 +9°C° 0 mm 1 mps 753 mmHg 73%
07:00 +11°C° 0 mm 1 mps 753 mmHg 69%
08:00 +12°C° 0 mm 1 mps 752 mmHg 63%
09:00 +13°C° 0 mm 1 mps 752 mmHg 57%
10:00 +15°C° 0 mm 1 mps 752 mmHg 50%
11:00 +15°C° 0 mm 2 mps 751 mmHg 48%
12:00 +15°C° 0 mm 2 mps 751 mmHg 46%
13:00 +16°C° 0 mm 2 mps 751 mmHg 44%
14:00 +15°C° 0 mm 2 mps 751 mmHg 47%
15:00 +15°C° 0 mm 2 mps 751 mmHg 50%
16:00 +15°C° 0 mm 2 mps 750 mmHg 52%
17:00 +13°C° 0.1 mm 2 mps 750 mmHg 60%
18:00 +10°C° 0.1 mm 3 mps 750 mmHg 67%
19:00 +9°C° 0.1 mm 3 mps 750 mmHg 74%
20:00 +8°C° 0.2 mm 3 mps 751 mmHg 78%
21:00 +6°C° 0.2 mm 4 mps 751 mmHg 82%
22:00 +5°C° 0.2 mm 4 mps 751 mmHg 86%
23:00 +5°C° 0.1 mm 4 mps 751 mmHg 85%

Day after tomorrow, 22 April, Thursday

Time Temperature Precipitation Wind Pressure Humidity
00:00 +4°C° 0.1 mm 4 mps 751 mmHg 84%
01:00 +3°C° 0.1 mm 4 mps 751 mmHg 83%
02:00 +3°C° 0 mm 4 mps 751 mmHg 83%
03:00 +1°C° 0 mm 5 mps 751 mmHg 83%
04:00 0°C° 0 mm 5 mps 750 mmHg 84%
05:00 +1°C° 0 mm 6 mps 751 mmHg 81%
06:00 +1°C° 0 mm 6 mps 751 mmHg 78%
07:00 0°C° 0 mm 7 mps 751 mmHg 75%
08:00 +2°C° 0 mm 7 mps 751 mmHg 72%
09:00 +3°C° 0 mm 7 mps 751 mmHg 68%
10:00 +3°C° 0 mm 7 mps 751 mmHg 64%
11:00 +4°C° 0.2 mm 7 mps 751 mmHg 68%
12:00 +4°C° 0.2 mm 7 mps 751 mmHg 72%
13:00 +4°C° 0.2 mm 7 mps 751 mmHg 76%
14:00 +4°C° 0.3 mm 7 mps 751 mmHg 74%
15:00 +4°C° 0.3 mm 7 mps 751 mmHg 73%
16:00 +5°C° 0.3 mm 7 mps 751 mmHg 71%
17:00 +4°C° 0.1 mm 6 mps 751 mmHg 75%
18:00 +3°C° 0.1 mm 6 mps 751 mmHg 78%
19:00 +2°C° 0.1 mm 5 mps 751 mmHg 82%
20:00 +1°C° 0.2 mm 5 mps 752 mmHg 83%
21:00 +1°C° 0.2 mm 5 mps 752 mmHg 85%
22:00 +1°C° 0.2 mm 5 mps 752 mmHg 87%
23:00 +1°C° 0 mm 5 mps 752 mmHg 88%

23 April, Friday

Time Temperature Precipitation Wind Pressure Humidity
00:00 +1°C° 0 mm 5 mps 752 mmHg 90%
01:00 0°C° 0 mm 5 mps 752 mmHg 91%
02:00 +1°C° 0.1 mm 5 mps 752 mmHg 91%
03:00 +1°C° 0.1 mm 5 mps 753 mmHg 90%
04:00 +1°C° 0.1 mm 5 mps 753 mmHg 90%
05:00 +1°C° 0.1 mm 5 mps 753 mmHg 88%
06:00 +2°C° 0.1 mm 5 mps 754 mmHg 85%
07:00 +2°C° 0.1 mm 6 mps 754 mmHg 83%
08:00 +2°C° 0.1 mm 6 mps 755 mmHg 81%
09:00 +3°C° 0.1 mm 7 mps 756 mmHg 79%
10:00 +3°C° 0.1 mm 7 mps 756 mmHg 77%
11:00 +4°C° 0.2 mm 7 mps 757 mmHg 71%
12:00 +5°C° 0.2 mm 7 mps 757 mmHg 65%
13:00 +5°C° 0.2 mm 7 mps 757 mmHg 59%
14:00 +5°C° 0.2 mm 7 mps 758 mmHg 57%
15:00 +5°C° 0.2 mm 7 mps 758 mmHg 55%
16:00 +5°C° 0.2 mm 6 mps 759 mmHg 53%
17:00 +5°C° 0 mm 5 mps 759 mmHg 54%
18:00 +3°C° 0 mm 4 mps 759 mmHg 56%
19:00 +3°C° 0 mm 2 mps 759 mmHg 57%
20:00 +2°C° 0 mm 3 mps 759 mmHg 59%
21:00 +2°C° 0 mm 3 mps 759 mmHg 60%
22:00 +1°C° 0 mm 4 mps 759 mmHg 62%
23:00 +1°C° 0 mm 4 mps 759 mmHg 63%

24 April, Saturday

Time Temperature Precipitation Wind Pressure Humidity
00:00 +1°C° 0 mm 4 mps 759 mmHg 64%
01:00 +1°C° 0 mm 4 mps 758 mmHg 65%
02:00 +1°C° 0.5 mm 4 mps 758 mmHg 73%
03:00 +1°C° 0.5 mm 4 mps 757 mmHg 82%
04:00 0°C° 0.5 mm 4 mps 757 mmHg 90%
05:00 +1°C° 0.2 mm 5 mps 756 mmHg 89%
06:00 +1°C° 0.2 mm 6 mps 756 mmHg 87%
07:00 +2°C° 0.2 mm 6 mps 755 mmHg 85%
08:00 +3°C° 0.1 mm 6 mps 755 mmHg 82%
09:00 +4°C° 0.1 mm 6 mps 755 mmHg 80%
10:00 +5°C° 0.1 mm 7 mps 755 mmHg 77%
11:00 +5°C° 0.4 mm 7 mps 756 mmHg 77%
12:00 +5°C° 0.4 mm 7 mps 756 mmHg 77%
13:00 +4°C° 0.4 mm 7 mps 757 mmHg 77%
14:00 +4°C° 0.1 mm 6 mps 757 mmHg 70%
15:00 +4°C° 0.1 mm 6 mps 758 mmHg 63%
16:00 +4°C° 0.1 mm 6 mps 758 mmHg 56%
17:00 +3°C° 0 mm 5 mps 759 mmHg 60%
18:00 +3°C° 0 mm 4 mps 759 mmHg 64%
19:00 +1°C° 0 mm 3 mps 760 mmHg 68%
20:00 +1°C° 0 mm 3 mps 760 mmHg 70%
21:00 +1°C° 0 mm 3 mps 760 mmHg 72%
22:00 +1°C° 0 mm 2 mps 760 mmHg 74%
23:00 0°C° 0 mm 3 mps 760 mmHg 76%

25 April, Sunday

Time Temperature Precipitation Wind Pressure Humidity
00:00 0°C° 0 mm 3 mps 760 mmHg 78%
01:00 0°C° 0 mm 3 mps 760 mmHg 80%
02:00 0°C° 0 mm 3 mps 761 mmHg 79%
03:00 0°C° 0 mm 3 mps 761 mmHg 79%
04:00 -1°C° 0 mm 3 mps 761 mmHg 78%
05:00 0°C° 0 mm 4 mps 761 mmHg 73%
06:00 +1°C° 0 mm 5 mps 761 mmHg 67%
07:00 +3°C° 0 mm 5 mps 762 mmHg 62%
08:00 +5°C° 0 mm 5 mps 762 mmHg 56%
09:00 +5°C° 0 mm 5 mps 762 mmHg 50%
10:00 +6°C° 0 mm 5 mps 762 mmHg 43%
11:00 +7°C° 0.1 mm 6 mps 762 mmHg 44%
12:00 +7°C° 0.1 mm 6 mps 762 mmHg 44%
13:00 +7°C° 0.1 mm 6 mps 762 mmHg 44%
14:00 +7°C° 0 mm 6 mps 762 mmHg 44%
15:00 +7°C° 0 mm 6 mps 762 mmHg 44%
16:00 +5°C° 0 mm 6 mps 762 mmHg 44%
17:00 +5°C° 0 mm 5 mps 762 mmHg 50%
18:00 +3°C° 0 mm 3 mps 762 mmHg 55%
19:00 +3°C° 0 mm 2 mps 762 mmHg 61%
20:00 +2°C° 0 mm 2 mps 762 mmHg 64%
21:00 +2°C° 0 mm 2 mps 762 mmHg 67%
22:00 0°C° 0 mm 3 mps 762 mmHg 70%
23:00 0°C° 0 mm 3 mps 761 mmHg 70%
Show more